START_TIME,STEP,MOV.,M29,t_acc.,H22,t_acc.,H26,t_acc.,H30,t_acc.
1979-02-28 18:00:21.340 ,0,1,0.,24.0,0.,24.0,0.,24.0,0.,24.0
1979-02-28 18:00:45.340 ,0,1,0.,24.0,0.,24.0,0.,24.0,0.,24.0
1979-02-28 18:01:09.340 ,1,1,0.,24.0,0.,24.0,0.,24.0,0.,24.0
1979-02-28 18:01:33.340 ,2,1,0.,24.0,0.,24.0,0.,24.0,0.,24.0
1979-02-28 18:01:57.340 ,3,1,0.,24.0,0.,24.0,0.,24.0,0.,24.0
1979-02-28 18:02:21.340 ,4,1,0.,24.0,0.,24.0,0.,24.0,0.,24.0
1979-02-28 18:02:45.340 ,5,1,0.,24.0,0.,24.0,0.,24.0,0.,24.0
1979-02-28 18:03:09.340 ,6,1,0.,24.0,0.,24.0,0.,24.0,0.,24.0
1979-02-28 18:03:33.340 ,7,1,0.,24.0,0.,24.0,0.,24.0,0.,24.0
1979-02-28 18:03:57.340 ,7,1,0.,24.0,0.,24.0,0.,24.0,0.,24.0
1979-02-28 18:04:21.340 ,6,1,0.,24.0,0.,24.0,0.,24.0,0.,24.0
1979-02-28 18:04:45.340 ,5,1,0.,24.0,0.,24.0,0.,24.0,0.,24.0
1979-02-28 18:05:09.340 ,4,1,0.,24.0,0.,24.0,0.,24.0,0.,24.0
1979-02-28 18:05:33.340 ,3,1,0.,24.0,0.,24.0,0.,24.0,0.,24.0
1979-02-28 18:05:57.340 ,2,1,0.,24.0,0.,24.0,0.,24.0,0.,24.0
1979-02-28 18:06:21.340 ,1,1,0.,24.0,0.,24.0,0.,24.0,0.,24.0
1979-02-28 18:06:45.340 ,0,1,0.,24.0,0.,24.0,0.,24.0,0.,24.0
1979-02-28 18:07:09.340 ,0,1,0.,24.0,0.,24.0,0.,24.0,0.,24.0
1979-02-28 18:07:33.340 ,1,1,0.,24.0,0.,24.0,0.,24.0,0.,24.0
1979-02-28 18:07:57.340 ,2,1,0.,24.0,0.,24.0,0.,24.0,0.,24.0
1979-02-28 18:08:21.340 ,3,1,0.,24.0,0.,24.0,0.,24.0,0.,24.0
1979-02-28 18:08:45.340 ,4,1,0.,24.0,0.,24.0,0.,24.0,0.,24.0
1979-02-28 18:09:09.340 ,5,1,0.,24.0,0.,24.0,0.,24.0,0.,24.0
1979-02-28 18:09:33.340 ,6,1,0.,24.0,0.,24.0,0.,24.0,0.,24.0
1979-02-28 18:09:57.340 ,7,1,0.,24.0,0.,24.0,0.,24.0,0.,24.0
1979-02-28 18:10:21.340 ,7,1,0.,24.0,0.,24.0,0.,24.0,0.,24.0
1979-02-28 18:10:45.340 ,6,1,0.,24.0,0.,24.0,0.,24.0,0.,24.0
1979-02-28 18:11:09.340 ,5,1,0.,24.0,0.,24.0,0.,24.0,0.,24.0
1979-02-28 18:11:33.340 ,4,1,0.,24.0,0.,24.0,0.,24.0,0.,24.0
1979-02-28 18:11:57.340 ,3,1,0.,24.0,0.,24.0,0.,24.0,0.,24.0
1979-02-28 18:12:21.340 ,2,1,1.,24.0,0.,24.0,0.,24.0,0.,24.0
1979-02-28 18:12:45.340 ,1,1,0.,24.0,0.,24.0,0.,24.0,0.,24.0
1979-02-28 18:13:09.340 ,0,1,0.,24.0,0.,24.0,0.,24.0,0.,24.0
1979-02-28 18:13:33.340 ,0,1,0.,24.0,0.,24.0,0.,24.0,0.,24.0
1979-02-28 18:13:57.340 ,1,1,0.,24.0,0.,24.0,0.,24.0,0.,24.0
1979-02-28 18:14:21.340 ,2,1,0.,24.0,0.,24.0,0.,24.0,0.,24.0
1979-02-28 18:14:45.340 ,3,1,0.,24.0,0.,24.0,0.,24.0,0.,24.0
1979-02-28 18:15:09.340 ,4,1,0.,24.0,0.,24.0,0.,24.0,0.,24.0
1979-02-28 18:15:33.340 ,5,1,0.,24.0,0.,24.0,0.,24.0,0.,24.0
1979-02-28 18:15:57.340 ,0,0,0.,24.0,0.,24.0,0.,24.0,0.,24.0
1979-02-28 18:16:21.340 ,0,0,0.,24.0,0.,24.0,0.,24.0,0.,24.0
1979-02-28 18:16:45.340 ,7,1,0.,24.0,0.,24.0,0.,24.0,0.,24.0
1979-02-28 18:17:09.340 ,6,1,0.,24.0,0.,24.0,0.,24.0,0.,24.0
1979-02-28 18:17:33.340 ,5,1,0.,24.0,0.,24.0,0.,24.0,0.,24.0
1979-02-28 18:17:57.340 ,4,1,0.,24.0,0.,24.0,0.,24.0,0.,24.0
1979-02-28 18:18:21.340 ,3,1,0.,24.0,0.,24.0,0.,24.0,0.,24.0
1979-02-28 18:18:45.340 ,2,1,0.,24.0,0.,24.0,0.,24.0,0.,24.0
1979-02-28 18:19:09.340 ,1,1,1.,24.0,0.,24.0,0.,24.0,0.,24.0
1979-02-28 18:19:33.340 ,0,1,0.,24.0,0.,24.0,0.,24.0,0.,24.0
1979-02-28 18:19:57.340 ,0,1,0.,24.0,0.,24.0,0.,24.0,0.,24.0
1979-02-28 18:20:21.340 ,1,1,0.,24.0,0.,24.0,0.,24.0,0.,24.0
1979-02-28 18:20:45.340 ,2,1,0.,24.0,0.,24.0,0.,24.0,0.,24.0
1979-02-28 18:21:09.340 ,3,1,0.,24.0,0.,24.0,0.,24.0,0.,24.0
1979-02-28 18:21:33.340 ,4,1,0.,24.0,0.,24.0,0.,24.0,0.,24.0
1979-02-28 18:21:57.340 ,5,1,0.,24.0,0.,24.0,0.,24.0,0.,24.0
1979-02-28 18:22:21.340 ,6,1,0.,24.0,0.,24.0,0.,24.0,0.,24.0
1979-02-28 18:22:45.340 ,7,1,0.,24.0,0.,24.0,0.,24.0,0.,24.0
1979-02-28 18:23:09.340 ,7,1,0.,24.0,0.,24.0,0.,24.0,0.,24.0
1979-02-28 18:23:33.340 ,6,1,0.,24.0,0.,24.0,0.,24.0,0.,24.0
1979-02-28 18:23:57.340 ,5,1,0.,24.0,0.,24.0,0.,24.0,0.,24.0
1979-02-28 18:24:21.340 ,4,1,0.,24.0,0.,24.0,0.,24.0,0.,24.0
1979-02-28 18:24:45.340 ,3,1,0.,24.0,0.,24.0,0.,24.0,0.,24.0
1979-02-28 18:25:09.340 ,2,1,0.,24.0,0.,24.0,0.,24.0,0.,24.0
1979-02-28 18:25:33.340 ,1,1,0.,24.0,0.,24.0,0.,24.0,0.,24.0
1979-02-28 18:25:57.340 ,0,1,0.,24.0,0.,24.0,0.,24.0,0.,24.0
1979-02-28 18:26:21.340 ,0,1,0.,24.0,0.,24.0,0.,24.0,0.,24.0
1979-02-28 18:26:45.340 ,1,1,1.,24.0,0.,24.0,0.,24.0,0.,24.0
1979-02-28 18:27:09.340 ,2,1,0.,24.0,0.,24.0,0.,24.0,0.,24.0
1979-02-28 18:27:33.340 ,3,1,0.,24.0,0.,24.0,0.,24.0,0.,24.0
1979-02-28 18:27:57.340 ,4,1,0.,24.0,0.,24.0,0.,24.0,0.,24.0
1979-02-28 18:28:21.340 ,5,1,0.,24.0,0.,24.0,0.,24.0,0.,24.0
1979-02-28 18:28:45.340 ,6,1,0.,24.0,0.,24.0,0.,24.0,0.,24.0
1979-02-28 18:29:09.340 ,7,1,0.,24.0,0.,24.0,0.,24.0,0.,24.0
1979-02-28 18:29:33.340 ,7,1,0.,24.0,0.,24.0,0.,24.0,0.,24.0
1979-02-28 18:29:57.340 ,6,1,0.,24.0,0.,24.0,0.,24.0,0.,24.0
1979-02-28 18:30:21.340 ,5,1,0.,24.0,0.,24.0,0.,24.0,0.,24.0
1979-02-28 18:30:45.340 ,4,1,1.,24.0,0.,24.0,0.,24.0,0.,24.0
1979-02-28 18:31:09.340 ,3,1,0.,24.0,0.,24.0,0.,24.0,0.,24.0
1979-02-28 18:31:33.340 ,2,1,0.,24.0,0.,24.0,0.,24.0,0.,24.0
1979-02-28 18:31:57.340 ,1,1,0.,24.0,0.,24.0,0.,24.0,0.,24.0
1979-02-28 18:32:21.340 ,0,1,0.,24.0,0.,24.0,0.,24.0,0.,24.0
1979-02-28 18:32:45.340 ,0,1,0.,24.0,0.,24.0,0.,24.0,0.,24.0
1979-02-28 18:33:09.340 ,1,1,0.,24.0,0.,24.0,0.,24.0,0.,24.0
1979-02-28 18:33:33.340 ,2,1,0.,24.0,0.,24.0,0.,24.0,0.,24.0
1979-02-28 18:33:57.340 ,3,1,0.,24.0,0.,24.0,0.,24.0,0.,24.0
1979-02-28 18:34:21.340 ,4,1,0.,24.0,0.,24.0,0.,24.0,0.,24.0
1979-02-28 18:34:45.340 ,5,1,0.,24.0,0.,24.0,0.,24.0,0.,24.0
1979-02-28 18:35:09.340 ,6,1,0.,24.0,0.,24.0,0.,24.0,0.,24.0
1979-02-28 18:35:33.340 ,7,1,0.,24.0,0.,24.0,0.,24.0,0.,24.0
1979-02-28 18:35:57.340 ,7,1,0.,24.0,0.,24.0,0.,24.0,0.,24.0
1979-02-28 18:36:21.340 ,6,1,0.,24.0,0.,24.0,0.,24.0,0.,24.0
1979-02-28 18:36:45.340 ,5,1,0.,24.0,0.,24.0,0.,24.0,0.,24.0
1979-02-28 18:37:09.340 ,4,1,0.,24.0,0.,24.0,0.,24.0,0.,24.0
1979-02-28 18:37:33.340 ,3,1,0.,24.0,0.,24.0,0.,24.0,0.,24.0
1979-02-28 18:37:57.340 ,2,1,0.,24.0,0.,24.0,0.,24.0,0.,24.0
1979-02-28 18:38:21.340 ,1,1,0.,24.0,0.,24.0,0.,24.0,0.,24.0
1979-02-28 18:38:45.340 ,0,1,0.,24.0,0.,24.0,0.,24.0,0.,24.0
1979-02-28 18:39:09.340 ,0,1,0.,24.0,0.,24.0,0.,24.0,0.,24.0
1979-02-28 18:39:33.340 ,1,1,0.,24.0,0.,24.0,0.,24.0,0.,24.0
1979-02-28 18:39:57.340 ,2,1,0.,24.0,0.,24.0,0.,24.0,0.,24.0
1979-02-28 18:40:21.340 ,3,1,0.,24.0,0.,24.0,0.,24.0,0.,24.0
1979-02-28 18:40:45.340 ,4,1,0.,24.0,0.,24.0,0.,24.0,0.,24.0
1979-02-28 18:41:09.340 ,5,1,0.,24.0,0.,24.0,0.,24.0,0.,24.0
1979-02-28 18:41:33.340 ,6,1,0.,24.0,0.,24.0,0.,24.0,0.,24.0
1979-02-28 18:41:57.340 ,7,1,0.,24.0,0.,24.0,0.,24.0,0.,24.0
1979-02-28 18:42:21.340 ,7,1,0.,24.0,0.,24.0,0.,24.0,0.,24.0
1979-02-28 18:42:45.340 ,6,1,0.,24.0,0.,24.0,0.,24.0,0.,24.0
1979-02-28 18:43:09.340 ,5,1,0.,24.0,0.,24.0,0.,24.0,0.,24.0
1979-02-28 18:43:33.340 ,4,1,0.,24.0,0.,24.0,0.,24.0,0.,24.0
1979-02-28 18:43:57.340 ,3,1,0.,24.0,0.,24.0,0.,24.0,0.,24.0
1979-02-28 18:44:21.340 ,2,1,0.,24.0,0.,24.0,0.,24.0,0.,24.0
1979-02-28 18:44:45.340 ,1,1,0.,24.0,0.,24.0,0.,24.0,0.,24.0
1979-02-28 18:45:09.340 ,0,1,0.,24.0,0.,24.0,0.,24.0,0.,24.0
1979-02-28 18:45:33.340 ,0,1,0.,24.0,0.,24.0,0.,24.0,0.,24.0
1979-02-28 18:45:57.340 ,1,1,0.,24.0,0.,24.0,0.,24.0,0.,24.0
1979-02-28 18:46:21.340 ,2,1,0.,24.0,0.,24.0,0.,24.0,0.,24.0
1979-02-28 18:46:45.340 ,3,1,0.,24.0,0.,24.0,0.,24.0,0.,24.0
1979-02-28 18:47:09.340 ,4,1,0.,24.0,0.,24.0,0.,24.0,0.,24.0
1979-02-28 18:47:33.340 ,5,1,0.,24.0,0.,24.0,0.,24.0,0.,24.0
1979-02-28 18:47:57.340 ,6,1,0.,24.0,0.,24.0,0.,24.0,0.,24.0
1979-02-28 18:48:21.340 ,7,1,0.,24.0,0.,24.0,0.,24.0,0.,24.0
1979-02-28 18:48:45.340 ,7,1,0.,24.0,0.,24.0,0.,24.0,0.,24.0
1979-02-28 18:49:09.340 ,6,1,0.,24.0,0.,24.0,0.,24.0,0.,24.0
1979-02-28 18:49:33.340 ,5,1,0.,24.0,0.,24.0,0.,24.0,0.,24.0
1979-02-28 18:49:57.340 ,4,1,0.,24.0,0.,24.0,0.,24.0,0.,24.0
1979-02-28 18:50:21.340 ,3,1,0.,24.0,0.,24.0,0.,24.0,0.,24.0
1979-02-28 18:50:45.340 ,2,1,0.,24.0,0.,24.0,0.,24.0,0.,24.0
1979-02-28 18:51:09.340 ,1,1,0.,24.0,0.,24.0,0.,24.0,0.,24.0
1979-02-28 18:51:33.340 ,0,1,0.,24.0,0.,24.0,0.,24.0,0.,24.0
1979-02-28 18:51:57.340 ,0,1,0.,24.0,0.,24.0,0.,24.0,0.,24.0
1979-02-28 18:52:21.340 ,1,1,0.,24.0,0.,24.0,0.,24.0,0.,24.0
1979-02-28 18:52:45.340 ,2,1,0.,24.0,0.,24.0,0.,24.0,0.,24.0
1979-02-28 18:53:09.340 ,3,1,0.,24.0,0.,24.0,0.,24.0,0.,24.0
1979-02-28 18:53:33.340 ,4,1,0.,24.0,0.,24.0,0.,24.0,0.,24.0
1979-02-28 18:53:57.340 ,5,1,0.,24.0,0.,24.0,0.,24.0,0.,24.0
1979-02-28 18:58:21.340 ,0,0,0.,24.0,0.,24.0,0.,24.0,0.,24.0
1979-02-28 18:58:45.340 ,1,1,1.,24.0,0.,24.0,0.,24.0,0.,24.0
1979-02-28 18:59:09.340 ,2,1,0.,24.0,0.,24.0,0.,24.0,0.,24.0
1979-02-28 18:59:33.340 ,3,1,0.,24.0,0.,24.0,0.,24.0,0.,24.0
1979-02-28 18:59:57.340 ,4,1,0.,24.0,0.,24.0,0.,24.0,0.,24.0
1979-02-28 19:00:21.340 ,5,1,0.,24.0,0.,24.0,0.,24.0,0.,24.0
1979-02-28 19:00:45.340 ,6,1,0.,24.0,0.,24.0,0.,24.0,0.,24.0
1979-02-28 19:01:09.340 ,7,1,0.,24.0,0.,24.0,0.,24.0,0.,24.0
1979-02-28 19:01:33.340 ,7,1,0.,24.0,0.,24.0,0.,24.0,0.,24.0
1979-02-28 19:01:57.340 ,6,1,0.,24.0,0.,24.0,0.,24.0,0.,24.0
1979-02-28 19:02:21.340 ,5,1,0.,24.0,0.,24.0,0.,24.0,0.,24.0
1979-02-28 19:02:45.340 ,4,1,0.,24.0,0.,24.0,0.,24.0,0.,24.0
1979-02-28 19:03:09.340 ,3,1,0.,24.0,0.,24.0,0.,24.0,0.,24.0
1979-02-28 19:03:33.340 ,2,1,0.,24.0,0.,24.0,0.,24.0,0.,24.0
1979-02-28 19:03:57.340 ,1,1,0.,24.0,0.,24.0,0.,24.0,0.,24.0
1979-02-28 19:04:21.340 ,0,1,0.,24.0,0.,24.0,0.,24.0,0.,24.0
1979-02-28 19:04:45.340 ,0,1,0.,24.0,0.,24.0,0.,24.0,0.,24.0
1979-02-28 19:05:09.340 ,1,1,0.,24.0,0.,24.0,0.,24.0,0.,24.0
1979-02-28 19:05:33.340 ,2,1,0.,24.0,0.,24.0,0.,24.0,0.,24.0
1979-02-28 19:05:57.340 ,3,1,0.,24.0,0.,24.0,0.,24.0,0.,24.0
1979-02-28 19:06:21.340 ,4,1,0.,24.0,0.,24.0,0.,24.0,0.,24.0
1979-02-28 19:06:45.340 ,5,1,0.,24.0,0.,24.0,0.,24.0,0.,24.0
1979-02-28 19:07:09.340 ,6,1,0.,24.0,0.,24.0,0.,24.0,0.,24.0
1979-02-28 19:07:33.340 ,7,1,0.,24.0,0.,24.0,0.,24.0,0.,24.0
1979-02-28 19:07:57.340 ,7,1,0.,24.0,0.,24.0,0.,24.0,0.,24.0
1979-02-28 19:08:21.340 ,6,1,0.,24.0,0.,24.0,0.,24.0,0.,24.0
1979-02-28 19:08:45.340 ,5,1,0.,24.0,0.,24.0,0.,24.0,0.,24.0
1979-02-28 19:09:09.340 ,4,1,0.,24.0,0.,24.0,0.,24.0,0.,24.0
1979-02-28 19:09:33.340 ,3,1,0.,24.0,0.,24.0,0.,24.0,0.,24.0
1979-02-28 19:09:57.340 ,2,1,0.,24.0,0.,24.0,0.,24.0,0.,24.0
1979-02-28 19:10:21.340 ,1,1,0.,24.0,0.,24.0,0.,24.0,0.,24.0
1979-02-28 19:10:45.340 ,0,1,0.,24.0,0.,24.0,0.,24.0,0.,24.0
1979-02-28 19:11:09.340 ,0,1,0.,24.0,0.,24.0,0.,24.0,0.,24.0
1979-02-28 19:11:33.340 ,1,1,0.,24.0,0.,24.0,0.,24.0,0.,24.0
1979-02-28 19:11:57.340 ,2,1,0.,24.0,0.,24.0,0.,24.0,0.,24.0
1979-02-28 19:12:21.340 ,3,1,0.,24.0,0.,24.0,0.,24.0,0.,24.0
1979-02-28 19:13:33.340 ,0,0,0.,24.0,0.,24.0,0.,24.0,0.,24.0
1979-02-28 19:13:57.340 ,7,1,0.,24.0,0.,24.0,0.,24.0,0.,24.0
1979-02-28 19:14:21.340 ,7,1,0.,24.0,0.,24.0,0.,24.0,0.,24.0
1979-02-28 19:14:45.340 ,6,1,0.,24.0,0.,24.0,0.,24.0,0.,24.0
1979-02-28 19:15:09.340 ,5,1,0.,24.0,0.,24.0,0.,24.0,0.,24.0
1979-02-28 19:15:33.340 ,4,1,0.,24.0,0.,24.0,0.,24.0,0.,24.0
1979-02-28 19:15:57.340 ,3,1,0.,24.0,0.,24.0,0.,24.0,0.,24.0
1979-02-28 19:16:21.340 ,2,1,0.,24.0,0.,24.0,0.,24.0,0.,24.0
1979-02-28 19:16:45.340 ,1,1,1.,24.0,0.,24.0,0.,24.0,0.,24.0
1979-02-28 19:17:09.340 ,0,1,0.,24.0,0.,24.0,0.,24.0,0.,24.0
1979-02-28 19:17:33.340 ,0,1,1.,24.0,0.,24.0,0.,24.0,0.,24.0
1979-02-28 19:17:57.340 ,1,1,0.,24.0,0.,24.0,0.,24.0,0.,24.0
1979-02-28 19:18:21.340 ,2,1,0.,24.0,0.,24.0,0.,24.0,0.,24.0
1979-02-28 19:18:45.340 ,3,1,0.,24.0,0.,24.0,0.,24.0,0.,24.0
1979-02-28 19:19:09.340 ,4,1,0.,24.0,0.,24.0,0.,24.0,0.,24.0
1979-02-28 19:19:33.340 ,5,1,0.,24.0,0.,24.0,0.,24.0,0.,24.0
1979-02-28 19:19:57.340 ,6,1,0.,24.0,0.,24.0,0.,24.0,0.,24.0
1979-02-28 19:20:21.340 ,7,1,0.,24.0,0.,24.0,0.,24.0,0.,24.0
1979-02-28 19:20:45.340 ,7,1,0.,24.0,0.,24.0,0.,24.0,1.,24.0
1979-02-28 19:21:09.340 ,6,1,0.,24.0,0.,24.0,0.,24.0,0.,24.0
1979-02-28 19:21:33.340 ,5,1,0.,24.0,0.,24.0,0.,24.0,0.,24.0
1979-02-28 19:21:57.340 ,4,1,0.,24.0,0.,24.0,0.,24.0,0.,24.0
1979-02-28 19:22:21.340 ,3,1,0.,24.0,0.,24.0,0.,24.0,0.,24.0
1979-02-28 19:22:45.340 ,2,1,0.,24.0,0.,24.0,0.,24.0,0.,24.0
1979-02-28 19:23:09.340 ,0,0,0.,24.0,0.,24.0,0.,24.0,0.,24.0
1979-02-28 19:23:33.340 ,0,1,0.,24.0,0.,24.0,0.,24.0,0.,24.0
1979-02-28 19:23:57.340 ,0,1,0.,24.0,0.,24.0,0.,24.0,0.,24.0
1979-02-28 19:24:21.340 ,1,1,0.,24.0,0.,24.0,0.,24.0,0.,24.0
1979-02-28 19:24:45.340 ,2,1,0.,24.0,0.,24.0,0.,24.0,0.,24.0
1979-02-28 19:25:09.340 ,3,1,0.,24.0,0.,24.0,0.,24.0,0.,24.0
1979-02-28 19:25:33.340 ,4,1,0.,24.0,0.,24.0,0.,24.0,0.,24.0
1979-02-28 19:25:57.340 ,5,1,0.,24.0,0.,24.0,0.,24.0,0.,24.0
1979-02-28 19:26:21.340 ,6,1,0.,24.0,0.,24.0,0.,24.0,0.,24.0
1979-02-28 19:26:45.340 ,7,1,0.,24.0,0.,24.0,0.,24.0,0.,24.0
1979-02-28 19:27:09.340 ,7,1,0.,24.0,0.,24.0,0.,24.0,0.,24.0
1979-02-28 19:27:33.340 ,6,1,0.,24.0,0.,24.0,0.,24.0,0.,24.0
1979-02-28 19:27:57.340 ,5,1,0.,24.0,0.,24.0,0.,24.0,0.,24.0
1979-02-28 19:28:21.340 ,4,1,0.,24.0,0.,24.0,0.,24.0,0.,24.0
1979-02-28 19:28:45.340 ,3,1,0.,24.0,0.,24.0,0.,24.0,0.,24.0
1979-02-28 19:29:09.340 ,2,1,0.,24.0,0.,24.0,0.,24.0,0.,24.0
1979-02-28 19:29:33.340 ,1,1,0.,24.0,0.,24.0,0.,24.0,0.,24.0
1979-02-28 19:29:57.340 ,0,1,0.,24.0,0.,24.0,0.,24.0,0.,24.0
1979-02-28 19:30:21.340 ,0,1,0.,24.0,0.,24.0,0.,24.0,0.,24.0
1979-02-28 19:30:45.340 ,1,1,0.,24.0,0.,24.0,0.,24.0,0.,24.0
1979-02-28 19:31:09.340 ,2,1,0.,24.0,0.,24.0,0.,24.0,0.,24.0
1979-02-28 19:31:33.340 ,3,1,0.,24.0,0.,24.0,0.,24.0,0.,24.0
1979-02-28 19:31:57.340 ,4,1,0.,24.0,0.,24.0,0.,24.0,0.,24.0
1979-02-28 19:32:21.340 ,5,1,0.,24.0,0.,24.0,0.,24.0,0.,24.0
1979-02-28 19:32:45.340 ,6,1,0.,24.0,0.,24.0,0.,24.0,0.,24.0
1979-02-28 19:33:09.340 ,7,1,0.,24.0,0.,24.0,0.,24.0,0.,24.0
1979-02-28 19:33:33.340 ,7,1,0.,24.0,0.,24.0,0.,24.0,0.,24.0
1979-02-28 19:33:57.340 ,6,1,0.,24.0,0.,24.0,0.,24.0,0.,24.0
1979-02-28 19:34:21.340 ,5,1,0.,24.0,0.,24.0,0.,24.0,0.,24.0
1979-02-28 19:34:45.340 ,4,1,0.,24.0,0.,24.0,0.,24.0,0.,24.0
1979-02-28 19:35:09.340 ,3,1,0.,24.0,0.,24.0,0.,24.0,0.,24.0
1979-02-28 19:35:33.340 ,2,1,0.,24.0,0.,24.0,0.,24.0,0.,24.0
1979-02-28 19:35:57.340 ,1,1,0.,24.0,0.,24.0,0.,24.0,0.,24.0
1979-02-28 19:36:21.340 ,0,1,0.,24.0,0.,24.0,0.,24.0,0.,24.0
1979-02-28 19:36:45.340 ,0,1,0.,24.0,0.,24.0,0.,24.0,0.,24.0
1979-02-28 19:37:09.340 ,1,1,0.,24.0,0.,24.0,0.,24.0,0.,24.0
1979-02-28 19:37:33.340 ,2,1,0.,24.0,0.,24.0,0.,24.0,0.,24.0
1979-02-28 19:37:57.340 ,3,1,0.,24.0,0.,24.0,0.,24.0,0.,24.0
1979-02-28 19:38:21.340 ,4,1,0.,24.0,0.,24.0,0.,24.0,0.,24.0
1979-02-28 19:38:45.340 ,5,1,0.,24.0,0.,24.0,0.,24.0,0.,24.0
1979-02-28 19:39:09.340 ,6,1,0.,24.0,0.,24.0,0.,24.0,0.,24.0
1979-02-28 19:39:33.340 ,7,1,1.,24.0,0.,24.0,0.,24.0,0.,24.0
1979-02-28 19:39:57.340 ,7,1,0.,24.0,0.,24.0,0.,24.0,0.,24.0
1979-02-28 19:40:21.340 ,6,1,0.,24.0,0.,24.0,0.,24.0,0.,24.0
1979-02-28 19:40:45.340 ,5,1,0.,24.0,0.,24.0,0.,24.0,0.,24.0
1979-02-28 19:41:09.340 ,4,1,0.,24.0,0.,24.0,0.,24.0,0.,24.0
1979-02-28 19:41:33.340 ,3,1,0.,24.0,0.,24.0,0.,24.0,0.,24.0
1979-02-28 19:41:57.340 ,2,1,0.,24.0,0.,24.0,0.,24.0,0.,24.0
1979-02-28 19:42:21.340 ,1,1,0.,24.0,0.,24.0,0.,24.0,0.,24.0
1979-02-28 19:42:45.340 ,0,1,0.,24.0,0.,24.0,0.,24.0,0.,24.0
1979-02-28 19:43:09.340 ,0,1,0.,24.0,0.,24.0,0.,24.0,0.,24.0
1979-02-28 19:43:33.340 ,1,1,0.,24.0,0.,24.0,0.,24.0,0.,24.0
1979-02-28 19:43:57.340 ,2,1,0.,24.0,0.,24.0,0.,24.0,0.,24.0
1979-02-28 19:44:21.340 ,3,1,0.,24.0,0.,24.0,0.,24.0,0.,24.0
1979-02-28 19:44:45.340 ,4,1,0.,24.0,0.,24.0,0.,24.0,0.,24.0
1979-02-28 19:45:09.340 ,5,1,0.,24.0,0.,24.0,0.,24.0,0.,24.0
1979-02-28 19:45:33.340 ,6,1,0.,24.0,0.,24.0,0.,24.0,0.,24.0
1979-02-28 19:45:57.340 ,7,1,0.,24.0,0.,24.0,0.,24.0,0.,24.0
1979-02-28 19:46:21.340 ,7,1,0.,24.0,0.,24.0,0.,24.0,0.,24.0
1979-02-28 19:46:45.340 ,6,1,0.,24.0,0.,24.0,0.,24.0,0.,24.0
1979-02-28 19:47:09.340 ,5,1,0.,24.0,0.,24.0,0.,24.0,0.,24.0
1979-02-28 19:47:33.340 ,4,1,0.,24.0,0.,24.0,0.,24.0,0.,24.0
1979-02-28 19:47:57.340 ,3,1,0.,24.0,0.,24.0,0.,24.0,0.,24.0
1979-02-28 19:48:21.340 ,2,1,0.,24.0,0.,24.0,0.,24.0,0.,24.0
1979-02-28 19:48:45.340 ,1,1,0.,24.0,0.,24.0,0.,24.0,0.,24.0
1979-02-28 19:49:09.340 ,0,1,0.,24.0,0.,24.0,0.,24.0,0.,24.0
1979-02-28 19:49:33.340 ,0,1,0.,24.0,0.,24.0,0.,24.0,0.,24.0
1979-02-28 19:49:57.340 ,1,1,0.,24.0,0.,24.0,0.,24.0,0.,24.0
1979-02-28 19:50:21.340 ,2,1,0.,24.0,0.,24.0,0.,24.0,0.,24.0
1979-02-28 19:50:45.340 ,3,1,1.,24.0,0.,24.0,0.,24.0,0.,24.0
1979-02-28 19:51:09.340 ,4,1,0.,24.0,1.,24.0,0.,24.0,0.,24.0
1979-02-28 19:51:33.340 ,5,1,0.,24.0,0.,24.0,0.,24.0,0.,24.0
1979-02-28 19:51:57.340 ,6,1,0.,24.0,0.,24.0,0.,24.0,0.,24.0
1979-02-28 19:52:21.340 ,7,1,0.,24.0,0.,24.0,0.,24.0,0.,24.0
1979-02-28 19:52:45.340 ,7,1,0.,24.0,0.,24.0,0.,24.0,0.,24.0
1979-02-28 19:53:09.340 ,6,1,0.,24.0,0.,24.0,0.,24.0,0.,24.0
1979-02-28 19:53:33.340 ,5,1,0.,24.0,0.,24.0,0.,24.0,0.,24.0
1979-02-28 19:53:57.340 ,4,1,0.,24.0,0.,24.0,0.,24.0,0.,24.0
1979-02-28 19:54:21.340 ,3,1,0.,24.0,0.,24.0,0.,24.0,0.,24.0
1979-02-28 19:54:45.340 ,2,1,0.,24.0,0.,24.0,0.,24.0,0.,24.0
1979-02-28 19:55:09.340 ,1,1,0.,24.0,0.,24.0,0.,24.0,0.,24.0
1979-02-28 19:55:33.340 ,0,1,0.,24.0,0.,24.0,0.,24.0,0.,24.0
1979-02-28 19:55:57.340 ,0,1,0.,24.0,0.,24.0,0.,24.0,0.,24.0
1979-02-28 19:56:21.340 ,1,1,0.,24.0,0.,24.0,0.,24.0,0.,24.0
1979-02-28 19:56:45.340 ,2,1,0.,24.0,0.,24.0,0.,24.0,0.,24.0
1979-02-28 19:57:09.340 ,3,1,0.,24.0,0.,24.0,0.,24.0,0.,24.0
1979-02-28 19:57:33.340 ,4,1,0.,24.0,0.,24.0,0.,24.0,0.,24.0
1979-02-28 19:57:57.340 ,5,1,0.,24.0,0.,24.0,0.,24.0,0.,24.0
1979-02-28 19:58:21.340 ,6,1,0.,24.0,0.,24.0,0.,24.0,0.,24.0
1979-02-28 19:58:45.340 ,7,1,0.,24.0,0.,24.0,0.,24.0,0.,24.0
1979-02-28 19:59:09.340 ,7,1,0.,24.0,0.,24.0,0.,24.0,0.,24.0
1979-02-28 19:59:33.340 ,6,1,0.,24.0,0.,24.0,0.,24.0,0.,24.0
1979-02-28 19:59:57.340 ,5,1,0.,24.0,0.,24.0,0.,24.0,0.,24.0
1979-02-28 20:00:21.340 ,4,1,0.,24.0,0.,24.0,0.,24.0,0.,24.0
1979-02-28 20:00:45.340 ,3,1,0.,24.0,0.,24.0,0.,24.0,0.,24.0
1979-02-28 20:01:09.340 ,2,1,0.,24.0,0.,24.0,0.,24.0,0.,24.0
1979-02-28 20:01:33.340 ,1,1,0.,24.0,0.,24.0,0.,24.0,0.,24.0
1979-02-28 20:01:57.340 ,0,1,0.,24.0,0.,24.0,0.,24.0,0.,24.0
1979-02-28 20:02:21.340 ,0,1,0.,24.0,0.,24.0,0.,24.0,0.,24.0
1979-02-28 20:02:45.340 ,1,1,0.,24.0,0.,24.0,0.,24.0,0.,24.0
1979-02-28 20:03:09.340 ,2,1,0.,24.0,0.,24.0,0.,24.0,0.,24.0
1979-02-28 20:03:33.340 ,3,1,0.,24.0,0.,24.0,0.,24.0,0.,24.0
1979-02-28 20:03:57.340 ,4,1,0.,24.0,0.,24.0,0.,24.0,0.,24.0
1979-02-28 20:04:21.340 ,5,1,0.,24.0,0.,24.0,0.,24.0,0.,24.0
1979-02-28 20:04:45.340 ,6,1,0.,24.0,0.,24.0,0.,24.0,0.,24.0
1979-02-28 20:05:09.340 ,7,1,0.,24.0,0.,24.0,0.,24.0,0.,24.0
1979-02-28 20:05:33.340 ,7,1,0.,24.0,0.,24.0,0.,24.0,0.,24.0
1979-02-28 20:05:57.340 ,6,1,0.,24.0,0.,24.0,0.,24.0,0.,24.0
1979-02-28 20:06:21.340 ,5,1,0.,24.0,0.,24.0,0.,24.0,0.,24.0
1979-02-28 20:06:45.340 ,4,1,0.,24.0,0.,24.0,0.,24.0,0.,24.0
1979-02-28 20:07:09.340 ,3,1,0.,24.0,0.,24.0,0.,24.0,0.,24.0
1979-02-28 20:07:33.340 ,2,1,0.,24.0,0.,24.0,0.,24.0,0.,24.0
1979-02-28 20:07:57.340 ,1,1,0.,24.0,0.,24.0,0.,24.0,0.,24.0
1979-02-28 20:08:21.340 ,0,1,0.,24.0,0.,24.0,0.,24.0,0.,24.0
1979-02-28 20:08:45.340 ,0,1,0.,24.0,0.,24.0,0.,24.0,0.,24.0
1979-02-28 20:09:09.340 ,1,1,0.,24.0,0.,24.0,0.,24.0,0.,24.0
1979-02-28 20:09:33.340 ,2,1,0.,24.0,0.,24.0,0.,24.0,0.,24.0
1979-02-28 20:09:57.340 ,3,1,0.,24.0,0.,24.0,0.,24.0,0.,24.0
1979-02-28 20:10:21.340 ,4,1,0.,24.0,0.,24.0,0.,24.0,0.,24.0
1979-02-28 20:10:45.340 ,5,1,0.,24.0,0.,24.0,0.,24.0,0.,24.0
1979-02-28 20:11:09.340 ,6,1,0.,24.0,0.,24.0,0.,24.0,0.,24.0
1979-02-28 20:11:33.340 ,7,1,0.,24.0,0.,24.0,0.,24.0,0.,24.0
1979-02-28 20:11:57.340 ,7,1,0.,24.0,0.,24.0,0.,24.0,0.,24.0
1979-02-28 20:12:21.340 ,6,1,0.,24.0,0.,24.0,0.,24.0,0.,24.0
1979-02-28 20:12:45.340 ,5,1,1.,24.0,0.,24.0,0.,24.0,0.,24.0
1979-02-28 20:13:09.340 ,4,1,0.,24.0,0.,24.0,0.,24.0,0.,24.0
1979-02-28 20:13:33.340 ,3,1,0.,24.0,0.,24.0,0.,24.0,0.,24.0
1979-02-28 20:13:57.340 ,2,1,0.,24.0,0.,24.0,0.,24.0,0.,24.0
1979-02-28 20:14:21.340 ,1,1,1.,24.0,0.,24.0,0.,24.0,0.,24.0
1979-02-28 20:14:45.340 ,0,1,0.,24.0,0.,24.0,0.,24.0,0.,24.0
1979-02-28 20:15:09.340 ,0,1,0.,24.0,0.,24.0,0.,24.0,0.,24.0
1979-02-28 20:15:33.340 ,1,1,0.,24.0,0.,24.0,0.,24.0,0.,24.0
1979-02-28 20:15:57.350 ,2,1,0.,24.0,0.,24.0,0.,24.0,0.,24.0
1979-02-28 20:16:21.350 ,3,1,0.,24.0,0.,24.0,0.,24.0,0.,24.0
1979-02-28 20:16:45.350 ,4,1,0.,24.0,0.,24.0,0.,24.0,0.,24.0
1979-02-28 20:17:09.340 ,5,1,0.,24.0,0.,24.0,0.,24.0,0.,24.0
1979-02-28 20:17:33.340 ,6,1,0.,24.0,0.,24.0,0.,24.0,0.,24.0
1979-02-28 20:17:57.340 ,7,1,0.,24.0,0.,24.0,0.,24.0,0.,24.0
1979-02-28 20:18:21.340 ,7,1,0.,24.0,0.,24.0,0.,24.0,0.,24.0
1979-02-28 20:18:45.340 ,6,1,1.,24.0,0.,24.0,0.,24.0,0.,24.0
1979-02-28 20:19:09.340 ,5,1,0.,24.0,0.,24.0,0.,24.0,0.,24.0
1979-02-28 20:19:33.340 ,4,1,0.,24.0,0.,24.0,0.,24.0,0.,24.0
1979-02-28 20:19:57.340 ,3,1,0.,24.0,0.,24.0,0.,24.0,0.,24.0
1979-02-28 20:20:21.340 ,2,1,0.,24.0,0.,24.0,0.,24.0,0.,24.0
1979-02-28 20:20:45.340 ,1,1,0.,24.0,0.,24.0,0.,24.0,0.,24.0
1979-02-28 20:21:09.340 ,0,1,0.,24.0,0.,24.0,0.,24.0,0.,24.0
1979-02-28 20:21:33.340 ,0,1,0.,24.0,0.,24.0,0.,24.0,0.,24.0
1979-02-28 20:21:57.340 ,1,1,0.,24.0,0.,24.0,0.,24.0,0.,24.0
1979-02-28 20:22:21.340 ,2,1,0.,24.0,0.,24.0,0.,24.0,0.,24.0
1979-02-28 20:22:45.340 ,3,1,0.,24.0,0.,24.0,0.,24.0,0.,24.0
1979-02-28 20:23:09.340 ,4,1,0.,24.0,0.,24.0,0.,24.0,0.,24.0
1979-02-28 20:23:33.340 ,5,1,0.,24.0,0.,24.0,0.,24.0,0.,24.0
1979-02-28 20:23:57.340 ,6,1,0.,24.0,0.,24.0,0.,24.0,0.,24.0
1979-02-28 20:24:21.340 ,7,1,0.,24.0,0.,24.0,0.,24.0,0.,24.0
1979-02-28 20:24:45.340 ,7,1,0.,24.0,0.,24.0,0.,24.0,0.,24.0
1979-02-28 20:25:09.340 ,6,1,0.,24.0,0.,24.0,0.,24.0,0.,24.0
1979-02-28 20:25:33.340 ,5,1,0.,24.0,0.,24.0,0.,24.0,0.,24.0
1979-02-28 20:25:57.340 ,4,1,0.,24.0,0.,24.0,0.,24.0,0.,24.0
1979-02-28 20:26:21.340 ,3,1,0.,24.0,0.,24.0,0.,24.0,0.,24.0
1979-02-28 20:26:45.340 ,2,1,0.,24.0,0.,24.0,0.,24.0,0.,24.0
1979-02-28 20:27:09.340 ,1,1,0.,24.0,0.,24.0,0.,24.0,0.,24.0
1979-02-28 20:27:33.340 ,0,1,0.,24.0,0.,24.0,0.,24.0,0.,24.0
1979-02-28 20:27:57.340 ,0,1,0.,24.0,0.,24.0,0.,24.0,0.,24.0
1979-02-28 20:28:21.340 ,1,1,0.,24.0,0.,24.0,0.,24.0,0.,24.0
1979-02-28 20:28:45.340 ,2,1,0.,24.0,0.,24.0,0.,24.0,0.,24.0
1979-02-28 20:29:09.340 ,3,1,0.,24.0,0.,24.0,0.,24.0,0.,24.0
1979-02-28 20:29:33.340 ,4,1,0.,24.0,0.,24.0,0.,24.0,0.,24.0
1979-02-28 20:29:57.340 ,5,1,0.,24.0,0.,24.0,0.,24.0,0.,24.0
1979-02-28 20:30:21.340 ,6,1,0.,24.0,0.,24.0,0.,24.0,0.,24.0
1979-02-28 20:30:45.340 ,7,1,0.,24.0,0.,24.0,0.,24.0,0.,24.0
1979-02-28 20:31:09.340 ,7,1,0.,24.0,0.,24.0,0.,24.0,0.,24.0
1979-02-28 20:31:33.340 ,6,1,0.,24.0,0.,24.0,0.,24.0,0.,24.0
1979-02-28 20:31:57.340 ,5,1,0.,24.0,0.,24.0,0.,24.0,0.,24.0
1979-02-28 20:32:21.340 ,4,1,0.,24.0,0.,24.0,0.,24.0,0.,24.0
1979-02-28 20:32:45.340 ,3,1,0.,24.0,0.,24.0,0.,24.0,0.,24.0
1979-02-28 20:33:09.340 ,2,1,0.,24.0,0.,24.0,0.,24.0,0.,24.0
1979-02-28 20:33:33.340 ,1,1,0.,24.0,0.,24.0,0.,24.0,0.,24.0
1979-02-28 20:33:57.340 ,0,1,0.,24.0,0.,24.0,0.,24.0,0.,24.0
1979-02-28 20:34:21.340 ,0,1,0.,24.0,0.,24.0,0.,24.0,0.,24.0
1979-02-28 20:34:45.340 ,1,1,0.,24.0,0.,24.0,0.,24.0,0.,24.0
1979-02-28 20:35:09.340 ,2,1,0.,24.0,0.,24.0,0.,24.0,0.,24.0
1979-02-28 20:35:33.340 ,3,1,0.,24.0,0.,24.0,0.,24.0,0.,24.0
1979-02-28 20:35:57.340 ,4,1,0.,24.0,0.,24.0,0.,24.0,0.,24.0
1979-02-28 20:36:21.340 ,5,1,0.,24.0,0.,24.0,0.,24.0,0.,24.0
1979-02-28 20:36:45.340 ,6,1,0.,24.0,0.,24.0,0.,24.0,0.,24.0
1979-02-28 20:37:09.340 ,7,1,0.,24.0,0.,24.0,0.,24.0,0.,24.0
1979-02-28 20:37:33.340 ,7,1,0.,24.0,0.,24.0,0.,24.0,0.,24.0
1979-02-28 20:37:57.340 ,6,1,0.,24.0,0.,24.0,0.,24.0,0.,24.0
1979-02-28 20:38:21.340 ,5,1,0.,24.0,0.,24.0,0.,24.0,0.,24.0
1979-02-28 20:38:45.340 ,4,1,0.,24.0,0.,24.0,0.,24.0,0.,24.0
1979-02-28 20:39:09.340 ,3,1,0.,24.0,0.,24.0,0.,24.0,0.,24.0